THORAD AGENA D DEB, 4988

Orbit data source: Space-Track

THORAD AGENA D DEB, 4988 is space debris in SSO originally from a launch on Wed, 08 Apr 1970 UTC launched from the Air Force Western Test Range (AFWTR). Debris objects in space refer to the collection of defunct objects orbiting the Earth. Examples of debris include non-operational satellites, rocket bodies, and fragments generated from explosions, collisions, or faulty payload assembly.

Loading next visibility...
Identifier
4988, 1970-025HJ
Orbit
SSO
Country
Flag of USUS
Related business
Manufacturer
Unknown
Mission
Spacecraft
Bus & Motor
Unknown
Mass
Unknown
Launch date (UTC)
1970-04-08 (56 years ago)
Launch vehicle
Unknown
Launch site
Air Force Western Test Range (AFWTR)
Object type
Payload
Rocket body
Debris
Shape & HBR
Unknown shape, 0.2 m
Radar Cross Section
Small (<0.1 m²)

Expand to show TLE details & history
Last TLE update: 20 hours ago

TLE from 20 hours ago
0 THORAD AGENA D DEB
1 04988U 70025HJ  25301.23002429  .00000645  00000-0  82999-3 0  9991
2 04988 100.0075 282.5724 0015060 147.1621 229.5406 13.66862842752130
Epoch: 2025-10-28T05:31Z
TLE epoch observation values (Epoch: 2025-10-28T05:31:14.098Z)
Latitude
16.2964°
Longitude
160.00131°
Altitude
1,020.238 km
Speed
7.339 km/s
True Right ascension
18h 38m 31s
True Declination
16° 12' 26"
Sunlit
Object was in daylight at epoch
Visualization orbit readout
Latitude
Unknown
Longitude
Unknown
Altitude
Unknown
Speed
Unknown
Apparent Right ascension
Unknown
Apparent Declination
Unknown
Sunlit
N/A
Visualization observer readout
Local Sidereal Time
21:28:59
Azimuth
Unknown
Elevation
Unknown
Doppler factor
Unknown
Orbital elements
Apogee altitude
1,019.274 km
Perigee altitude
997.027 km
Semi-major axis
7,386.287 km
Eccentricity
0.00151
Inclination
100.0075°
RAAN
282.5724°
Arg. of periapsis
147.1621°
True anomaly
229.40945°
Mean anomaly
229.5406°
Eccentric anomaly
229.47501°
Mean motion
3.41904 °/min
Orbital period
105.29 mins
BSTAR
0.00082999
Loading maneuver chart data...
Computing Atmospheric mass density...

Documentation

Showing up to 5 results
|